Location: ????????
(55.0097°N, 38.5678°E)
Time: 00:46:27
(UTC+00:00)

NOSS 3-1 (C) - Pass Details

Date: 24 December 2025
Orbit: 618 x 1583 km, 63.4° (Epoch: 10 January)

Event Time Altitude Azimuth Distance (km) Brightness Sun altitude
Rises 18:02:43 0° 274° (W) 3,190 7.0 -41.2°
Reaches altitude 10° 18:05:02 10° 283° (WNW) 2,371 6.2 -41.5°
Enters shadow 18:06:40 20° 293° (WNW) 1,861 5.5 -41.7°
